Change the Weather History Date:

Thursday, May 2, 2013

  Actual Average Record
Temperature  
Mean Temperature 68 °F -  
Max Temperature 73 °F 79 °F 86 °F (1964)
Min Temperature 64 °F 65 °F 51 °F (2005)
Cooling Degree Days 4    
Growing Degree Days 18 (Base 50)    
Moisture  
Dew Point 65 °F    
Average Humidity 91    
Maximum Humidity 100    
Minimum Humidity 73    
Precipitation  
Precipitation 0.45 in - - ()
Sea Level Pressure  
Sea Level Pressure 29.92 in    
Wind  
Wind Speed 8 mph (East)    
Max Wind Speed 16 mph    
Max Gust Speed 23 mph    
Visibility 9 miles    
Events Rain , Thunderstorm    
Averages and records for this station are not official NWS values.
T = Trace of Precipitation, MM = Missing Value Source: NWS Daily Summary

Daily Weather History Graph

Daily Weather History Graph

Search for Another Location

Airport or City:

Trip Planner

Search our weather history database for the weather conditions in past years. The results will help you decide how hot, cold, wet, or windy it might be!

Date:

Astronomy

May. 02, 2013 Rise Set
Actual Time 6:11 AM CDT 7:34 PM CDT
Civil Twilight 5:45 AM CDT 8:00 PM CDT
Nautical Twilight 5:15 AM CDT 8:30 PM CDT
Astronomical Twilight 4:43 AM CDT 9:02 PM CDT
Moon 1:27 AM CDT (5/2) 12:53 PM CDT (5/2)
Length of Visible Light 14h 14m
Length of Day
13h 23m
Waning Gibbous, 47% of the Moon is Illuminated
May 2
Waning Gibbous
May 9
New
May 17
First Quarter
May 24
Full
May 31
Last Quarter

Hourly Weather History & Observations

Time (CDT) Temp. Dew Point Humidity Pressure Visibility Wind Dir Wind Speed Gust Speed Precip Events Conditions
12:03 AM 64.4 °F 64.4 °F 100% 29.89 in 10.0 mi East 5.8 mph - N/A   Mostly Cloudy
12:08 AM 64.4 °F 64.4 °F 100% 29.89 in 10.0 mi East 5.8 mph - N/A   Scattered Clouds
12:13 AM 64.4 °F 64.4 °F 100% 29.89 in 10.0 mi East 8.1 mph - N/A   Mostly Cloudy
12:38 AM 64.4 °F 64.4 °F 100% 29.89 in 10.0 mi East 5.8 mph - N/A   Scattered Clouds
12:58 AM 65.5 °F 63.7 °F 94% 29.90 in 10.0 mi East 5.8 mph - N/A   Partly Cloudy
1:54 AM 64.4 °F 62.6 °F 94% 29.87 in 10.0 mi ENE 6.9 mph - N/A   Partly Cloudy
1:55 AM 64.4 °F 62.6 °F 94% 29.87 in 10.0 mi ENE 6.9 mph - N/A   Partly Cloudy
2:12 AM 64.4 °F 64.4 °F 100% 29.88 in 10.0 mi East 4.6 mph - N/A Thunderstorm Mostly Cloudy
2:22 AM 66.2 °F 64.4 °F 94% 29.87 in 10.0 mi ESE 5.8 mph - N/A   Mostly Cloudy
2:27 AM 66.2 °F 64.4 °F 94% 29.88 in 10.0 mi SE 15.0 mph 18.4 mph N/A   Overcast
2:37 AM 66.2 °F 64.4 °F 94% 29.87 in 10.0 mi ESE 13.8 mph 23.0 mph N/A   Overcast
2:47 AM 66.2 °F 64.4 °F 94% 29.86 in 10.0 mi ESE 8.1 mph - N/A   Overcast
2:52 AM 68.0 °F 64.4 °F 88% 29.86 in 10.0 mi ESE 8.1 mph - N/A   Mostly Cloudy
2:58 AM 67.1 °F 64.8 °F 92% 29.87 in 10.0 mi East 5.8 mph - N/A Thunderstorm Mostly Cloudy
3:56 AM 66.2 °F 64.4 °F 94% 29.87 in 10.0 mi East 6.9 mph - N/A Rain Rain
3:58 AM 66.2 °F 64.4 °F 94% 29.88 in 10.0 mi East 8.1 mph - N/A Rain Rain
4:19 AM 64.4 °F 62.6 °F 94% 29.89 in 10.0 mi East 8.1 mph - N/A   Overcast
4:29 AM 64.4 °F 62.6 °F 94% 29.89 in 10.0 mi East 8.1 mph - N/A   Overcast
4:39 AM 64.4 °F 62.6 °F 94% 29.89 in 10.0 mi East 4.6 mph - N/A   Overcast
4:49 AM 64.4 °F 62.6 °F 94% 29.90 in 10.0 mi ENE 3.5 mph - N/A   Overcast
4:58 AM 64.9 °F 63.3 °F 94% 29.91 in 10.0 mi ENE 6.9 mph - 0.02 in   Overcast
5:00 AM 64.4 °F 64.4 °F 100% 29.90 in 10.0 mi ENE 5.8 mph - N/A Rain Light Rain
5:10 AM 64.4 °F 62.6 °F 94% 29.90 in 10.0 mi ENE 8.1 mph - N/A Rain Light Rain
5:20 AM 64.4 °F 62.6 °F 94% 29.90 in 5.0 mi East 3.5 mph - N/A Rain , Thunderstorm Light Rain
5:25 AM 64.4 °F 64.4 °F 100% 29.90 in 2.5 mi Variable 2.3 mph - N/A Rain , Thunderstorm Heavy Rain
5:30 AM 64.4 °F 64.4 °F 100% 29.90 in 2.0 mi South 3.5 mph - N/A Rain Heavy Rain
5:35 AM 66.2 °F 64.4 °F 94% 29.90 in 1.8 mi SE 3.5 mph - N/A Rain Heavy Rain
5:40 AM 66.2 °F 64.4 °F 94% 29.89 in 1.0 mi Variable 2.3 mph - N/A Rain Heavy Rain
5:45 AM 66.2 °F 64.4 °F 94% 29.90 in 1.2 mi NE 3.5 mph - N/A Rain Light Rain
5:49 AM 66.2 °F 64.4 °F 94% 29.90 in 3.0 mi NNE 5.8 mph - N/A Rain , Thunderstorm Light Thunderstorms and Rain
5:54 AM 66.2 °F 64.4 °F 94% 29.90 in 8.0 mi NE 5.8 mph - N/A Rain , Thunderstorm Light Thunderstorms and Rain
5:58 AM 65.7 °F 64.2 °F 95% 29.91 in 10.0 mi ENE 4.6 mph - 0.35 in Rain , Thunderstorm Light Thunderstorms and Rain
6:04 AM 66.2 °F 64.4 °F 94% 29.90 in 10.0 mi ENE 4.6 mph - N/A Rain Light Rain
6:54 AM 66.2 °F 64.4 °F 94% 29.92 in 10.0 mi East 11.5 mph - N/A Rain Light Rain
6:58 AM 65.3 °F 63.9 °F 95% 29.93 in 10.0 mi East 9.2 mph - 0.06 in Rain Light Rain
7:03 AM 66.2 °F 64.4 °F 94% 29.93 in 10.0 mi East 9.2 mph - N/A   Overcast
7:18 AM 66.2 °F 64.4 °F 94% 29.93 in 10.0 mi ENE 8.1 mph - N/A   Overcast
7:33 AM 66.2 °F 64.4 °F 94% 29.94 in 10.0 mi East 8.1 mph - N/A   Overcast
7:36 AM 66.2 °F 64.4 °F 94% 29.94 in 10.0 mi ENE 9.2 mph - N/A Rain Light Rain
7:58 AM 65.3 °F 63.7 °F 94% 29.97 in 10.0 mi ENE 5.8 mph - 0.01 in Rain , Thunderstorm Light Rain
8:01 AM 66.2 °F 64.4 °F 94% 29.96 in 10.0 mi ENE 9.2 mph - N/A Thunderstorm Overcast
8:06 AM 66.2 °F 64.4 °F 94% 29.96 in 10.0 mi NE 9.2 mph - N/A   Overcast
8:16 AM 66.2 °F 64.4 °F 94% 29.96 in 10.0 mi NE 6.9 mph - N/A   Overcast
8:58 AM 66.2 °F 63.9 °F 92% 29.98 in 10.0 mi ENE 10.4 mph - 0.00 in   Overcast
9:03 AM 66.2 °F 64.4 °F 94% 29.97 in 10.0 mi ENE 10.4 mph - N/A   Mostly Cloudy
9:28 AM 66.2 °F 64.4 °F 94% 29.96 in 10.0 mi East 12.7 mph - N/A   Mostly Cloudy
9:33 AM 66.2 °F 64.4 °F 94% 29.96 in 10.0 mi East 12.7 mph - N/A   Mostly Cloudy
9:38 AM 66.2 °F 62.6 °F 88% 29.97 in 10.0 mi East 12.7 mph - N/A   Mostly Cloudy
9:43 AM 66.2 °F 64.4 °F 94% 29.96 in 10.0 mi East 11.5 mph - N/A   Mostly Cloudy
9:48 AM 66.2 °F 64.4 °F 94% 29.96 in 10.0 mi East 12.7 mph - N/A   Mostly Cloudy
9:53 AM 68.0 °F 64.4 °F 88% 29.96 in 10.0 mi East 10.4 mph - N/A   Mostly Cloudy
9:58 AM 67.3 °F 63.7 °F 88% 29.96 in 10.0 mi East 10.4 mph - N/A   Scattered Clouds
10:38 AM 69.8 °F 64.4 °F 83% 29.95 in 10.0 mi East 15.0 mph - N/A   Overcast
10:58 AM 70.2 °F 64.2 °F 81% 29.96 in 10.0 mi East 12.7 mph 21.9 mph N/A   Overcast
11:58 AM 68.9 °F 64.2 °F 85% 29.97 in 10.0 mi East 9.2 mph 21.9 mph N/A   Overcast
12:58 PM 70.0 °F 64.8 °F 83% 29.96 in 10.0 mi ENE 9.2 mph - N/A   Overcast
1:18 PM 71.6 °F 64.4 °F 78% 29.95 in 10.0 mi East 9.2 mph - N/A   Overcast
1:53 PM 73.4 °F 66.2 °F 78% 29.94 in 10.0 mi East 12.7 mph - N/A   Overcast
1:58 PM 72.9 °F 65.5 °F 78% 29.95 in 10.0 mi East 16.1 mph - N/A   Mostly Cloudy
2:58 PM 73.2 °F 64.9 °F 75% 29.94 in 10.0 mi East 10.4 mph - N/A   Overcast
3:08 PM 73.4 °F 64.4 °F 73% 29.93 in 10.0 mi East 10.4 mph - N/A   Mostly Cloudy
3:33 PM 73.4 °F 64.4 °F 73% 29.93 in 10.0 mi East 6.9 mph - N/A   Overcast
3:58 PM 72.5 °F 65.1 °F 78% 29.94 in 10.0 mi East 10.4 mph - N/A   Overcast
4:14 PM 71.6 °F 66.2 °F 83% 29.92 in 10.0 mi East 8.1 mph - N/A Rain Light Rain
4:34 PM 71.6 °F 66.2 °F 83% 29.92 in 10.0 mi East 8.1 mph - N/A Rain Light Rain
4:42 PM 71.6 °F 66.2 °F 83% 29.92 in 10.0 mi ENE 9.2 mph - N/A   Mostly Cloudy
4:47 PM 71.6 °F 66.2 °F 83% 29.92 in 10.0 mi ENE 8.1 mph - N/A   Mostly Cloudy
4:58 PM 72.3 °F 65.8 °F 80% 29.92 in 10.0 mi East 10.4 mph - 0.00 in   Scattered Clouds
5:03 PM 71.6 °F 66.2 °F 83% 29.91 in 10.0 mi ESE 9.2 mph - N/A   Mostly Cloudy
5:09 PM 71.6 °F 66.2 °F 83% 29.91 in 10.0 mi East 9.2 mph - N/A Rain Light Rain
5:19 PM 71.6 °F 66.2 °F 83% 29.91 in 6.0 mi ESE 10.4 mph - N/A   Haze
5:20 PM 71.6 °F 66.2 °F 83% 29.91 in 6.0 mi East 9.2 mph - N/A Rain Light Rain
5:35 PM 69.8 °F 66.2 °F 88% 29.91 in 10.0 mi East 8.1 mph - N/A Rain Light Rain
5:40 PM 69.8 °F 66.2 °F 88% 29.91 in 10.0 mi East 9.2 mph - N/A   Mostly Cloudy
5:58 PM 70.5 °F 64.8 °F 82% 29.93 in 10.0 mi East 11.5 mph - 0.01 in   Mostly Cloudy
6:58 PM 68.4 °F 65.3 °F 90% 29.93 in 10.0 mi NE 8.1 mph - N/A   Overcast
7:58 PM 67.6 °F 65.3 °F 92% 29.93 in 10.0 mi NE 5.8 mph - N/A   Overcast
8:58 PM 67.3 °F 65.3 °F 93% 29.94 in 10.0 mi NNE 4.6 mph - N/A   Overcast
9:58 PM 67.3 °F 65.3 °F 93% 29.95 in 10.0 mi NNE 4.6 mph - N/A   Overcast
10:58 PM 66.7 °F 64.9 °F 94% 29.95 in 10.0 mi NNE 4.6 mph - N/A   Overcast
11:03 PM 66.2 °F 64.4 °F 94% 29.94 in 10.0 mi NE 5.8 mph - N/A   Overcast
11:28 PM 66.2 °F 64.4 °F 94% 29.94 in 10.0 mi NNE 5.8 mph - N/A   Overcast
11:58 PM 66.6 °F 65.1 °F 95% 29.94 in 10.0 mi NE 5.8 mph - N/A   Mostly Cloudy